When you browse on this site, cookies collect data to enhance your experience and personalize the content and advertising you see.
Visit our Privacy Policy to learn more. By continuing to use the site, you agree to this use of cookies and data.
  • Em Portugal
  • Lista de países
  • Para 7 dias
  • Temperatura da água
  • Mapa do tempo
  • Widgets de tempo
  • user-avatar
    Iniciar Sessão

    Previsão horária em Lipova

    Hoje, 26 Agosto, Segunda-feira

    Tempo Temperatura Precipitação Vento Pressão Humidade
    00:00 +10°C° 0.2 mm 4 m/s 744 mmHg 95%
    01:00 +9°C° 0.2 mm 5 m/s 745 mmHg 95%
    02:00 +8°C° 0.1 mm 5 m/s 745 mmHg 95%
    03:00 +8°C° 0.1 mm 5 m/s 745 mmHg 95%
    04:00 +8°C° 0 mm 5 m/s 746 mmHg 95%
    05:00 +7°C° 0 mm 5 m/s 746 mmHg 94%
    06:00 +7°C° 0 mm 5 m/s 747 mmHg 93%
    07:00 +7°C° 0 mm 5 m/s 747 mmHg 92%
    08:00 +7°C° 0 mm 5 m/s 747 mmHg 89%
    09:00 +7°C° 0 mm 5 m/s 748 mmHg 87%
    10:00 +7°C° 0 mm 5 m/s 748 mmHg 85%
    11:00 +8°C° 0 mm 5 m/s 748 mmHg 80%
    12:00 +9°C° 0 mm 5 m/s 748 mmHg 75%
    13:00 +10°C° 0 mm 5 m/s 749 mmHg 70%
    14:00 +12°C° 0 mm 5 m/s 749 mmHg 67%
    15:00 +12°C° 0 mm 4 m/s 749 mmHg 63%
    16:00 +13°C° 0 mm 4 m/s 749 mmHg 60%
    17:00 +12°C° 0 mm 3 m/s 749 mmHg 63%
    18:00 +12°C° 0 mm 2 m/s 749 mmHg 66%
    19:00 +10°C° 0 mm 2 m/s 749 mmHg 69%
    20:00 +10°C° 0 mm 1 m/s 749 mmHg 71%
    21:00 +10°C° 0 mm 1 m/s 749 mmHg 73%
    22:00 +9°C° 0 mm 1 m/s 749 mmHg 75%
    23:00 +8°C° 0 mm 1 m/s 749 mmHg 77%

    Amanhã, 27 Agosto, Terça-feira

    Tempo Temperatura Precipitação Vento Pressão Humidade
    00:00 +7°C° 0 mm 1 m/s 748 mmHg 78%
    01:00 +7°C° 0 mm 1 m/s 748 mmHg 80%
    02:00 +7°C° 0 mm 1 m/s 747 mmHg 78%
    03:00 +8°C° 0 mm 1 m/s 747 mmHg 77%
    04:00 +9°C° 0 mm 1 m/s 747 mmHg 76%
    05:00 +8°C° 0 mm 2 m/s 746 mmHg 78%
    06:00 +8°C° 0 mm 2 m/s 746 mmHg 81%
    07:00 +9°C° 0 mm 2 m/s 745 mmHg 83%
    08:00 +9°C° 0.4 mm 2 m/s 744 mmHg 87%
    09:00 +9°C° 0.4 mm 3 m/s 744 mmHg 91%
    10:00 +9°C° 0.4 mm 3 m/s 743 mmHg 94%
    11:00 +9°C° 0.8 mm 3 m/s 743 mmHg 95%
    12:00 +10°C° 0.8 mm 4 m/s 742 mmHg 96%
    13:00 +10°C° 0.8 mm 4 m/s 741 mmHg 96%
    14:00 +10°C° 0.8 mm 4 m/s 741 mmHg 96%
    15:00 +10°C° 0.8 mm 4 m/s 741 mmHg 96%
    16:00 +11°C° 0.8 mm 4 m/s 740 mmHg 96%
    17:00 +11°C° 0.8 mm 4 m/s 740 mmHg 97%
    18:00 +11°C° 0.8 mm 3 m/s 739 mmHg 97%
    19:00 +11°C° 0.8 mm 3 m/s 739 mmHg 97%
    20:00 +10°C° 0.2 mm 3 m/s 738 mmHg 97%
    21:00 +10°C° 0.2 mm 2 m/s 738 mmHg 98%
    22:00 +10°C° 0.2 mm 2 m/s 738 mmHg 98%
    23:00 +10°C° 0 mm 2 m/s 738 mmHg 98%

    Depois de amanhã, 28 Agosto, Quarta-feira

    Tempo Temperatura Precipitação Vento Pressão Humidade
    00:00 +10°C° 0 mm 2 m/s 737 mmHg 98%
    01:00 +10°C° 0 mm 2 m/s 737 mmHg 98%
    02:00 +11°C° 0 mm 1 m/s 737 mmHg 98%
    03:00 +11°C° 0 mm 1 m/s 738 mmHg 98%
    04:00 +11°C° 0 mm 1 m/s 738 mmHg 98%
    05:00 +11°C° 0 mm 1 m/s 738 mmHg 98%
    06:00 +11°C° 0 mm 1 m/s 738 mmHg 97%
    07:00 +10°C° 0 mm 0 m/s 738 mmHg 97%
    08:00 +11°C° 0 mm 0 m/s 738 mmHg 94%
    09:00 +11°C° 0 mm 0 m/s 739 mmHg 92%
    10:00 +13°C° 0 mm 1 m/s 739 mmHg 89%
    11:00 +14°C° 0.3 mm 1 m/s 740 mmHg 88%
    12:00 +14°C° 0.3 mm 2 m/s 740 mmHg 86%
    13:00 +14°C° 0.3 mm 3 m/s 740 mmHg 85%
    14:00 +13°C° 0.4 mm 3 m/s 741 mmHg 87%
    15:00 +12°C° 0.4 mm 4 m/s 741 mmHg 89%
    16:00 +11°C° 0.4 mm 4 m/s 742 mmHg 91%
    17:00 +10°C° 0.1 mm 4 m/s 742 mmHg 91%
    18:00 +10°C° 0.1 mm 4 m/s 742 mmHg 92%
    19:00 +8°C° 0.1 mm 5 m/s 743 mmHg 92%
    20:00 +7°C° 0.3 mm 5 m/s 743 mmHg 93%
    21:00 +7°C° 0.3 mm 5 m/s 744 mmHg 94%
    22:00 +6°C° 0.3 mm 5 m/s 744 mmHg 95%
    23:00 +6°C° 0.4 mm 5 m/s 744 mmHg 95%

    29 Agosto, Quinta-feira

    Tempo Temperatura Precipitação Vento Pressão Humidade
    00:00 +6°C° 0.4 mm 5 m/s 744 mmHg 95%
    01:00 +6°C° 0.4 mm 5 m/s 744 mmHg 96%
    02:00 +6°C° 0.4 mm 5 m/s 744 mmHg 96%
    03:00 +6°C° 0.4 mm 5 m/s 744 mmHg 95%
    04:00 +6°C° 0.4 mm 5 m/s 745 mmHg 95%
    05:00 +6°C° 0.5 mm 5 m/s 745 mmHg 95%
    06:00 +6°C° 0.5 mm 4 m/s 745 mmHg 95%
    07:00 +6°C° 0.5 mm 4 m/s 745 mmHg 96%
    08:00 +6°C° 0.5 mm 4 m/s 746 mmHg 96%
    09:00 +6°C° 0.5 mm 4 m/s 746 mmHg 96%
    10:00 +6°C° 0.5 mm 4 m/s 746 mmHg 96%
    11:00 +6°C° 0.7 mm 4 m/s 747 mmHg 96%
    12:00 +6°C° 0.7 mm 4 m/s 747 mmHg 96%
    13:00 +6°C° 0.7 mm 4 m/s 747 mmHg 96%
    14:00 +6°C° 1.1 mm 4 m/s 747 mmHg 96%
    15:00 +6°C° 1.1 mm 4 m/s 747 mmHg 96%
    16:00 +6°C° 1.1 mm 4 m/s 748 mmHg 96%
    17:00 +6°C° 1.2 mm 4 m/s 748 mmHg 96%
    18:00 +6°C° 1.2 mm 4 m/s 748 mmHg 96%
    19:00 +7°C° 1.2 mm 3 m/s 748 mmHg 97%
    20:00 +7°C° 0.5 mm 3 m/s 748 mmHg 96%
    21:00 +5°C° 0.5 mm 3 m/s 748 mmHg 96%
    22:00 +6°C° 0.5 mm 2 m/s 748 mmHg 96%
    23:00 +6°C° 0.1 mm 2 m/s 748 mmHg 96%

    30 Agosto, Sexta-feira

    Tempo Temperatura Precipitação Vento Pressão Humidade
    00:00 +6°C° 0.1 mm 2 m/s 748 mmHg 95%
    01:00 +6°C° 0.1 mm 2 m/s 748 mmHg 95%
    02:00 +5°C° 0 mm 2 m/s 748 mmHg 96%
    03:00 +4°C° 0 mm 2 m/s 748 mmHg 96%
    04:00 +3°C° 0 mm 2 m/s 748 mmHg 96%
    05:00 +4°C° 0 mm 2 m/s 748 mmHg 95%
    06:00 +4°C° 0 mm 2 m/s 748 mmHg 94%
    07:00 +4°C° 0 mm 3 m/s 748 mmHg 92%
    08:00 +5°C° 0 mm 3 m/s 748 mmHg 88%
    09:00 +7°C° 0 mm 3 m/s 748 mmHg 83%
    10:00 +9°C° 0 mm 3 m/s 748 mmHg 79%
    11:00 +10°C° 0 mm 4 m/s 748 mmHg 72%
    12:00 +11°C° 0 mm 4 m/s 748 mmHg 64%
    13:00 +12°C° 0 mm 4 m/s 747 mmHg 57%
    14:00 +12°C° 0 mm 4 m/s 747 mmHg 57%
    15:00 +12°C° 0 mm 4 m/s 747 mmHg 58%
    16:00 +12°C° 0 mm 4 m/s 747 mmHg 58%
    17:00 +11°C° 0 mm 4 m/s 747 mmHg 61%
    18:00 +10°C° 0 mm 3 m/s 747 mmHg 65%
    19:00 +9°C° 0 mm 3 m/s 748 mmHg 69%
    20:00 +8°C° 0 mm 3 m/s 748 mmHg 75%
    21:00 +7°C° 0 mm 3 m/s 748 mmHg 80%
    22:00 +4°C° 0 mm 3 m/s 748 mmHg 85%
    23:00 +4°C° 0 mm 3 m/s 747 mmHg 87%

    31 Agosto, Sábado

    Tempo Temperatura Precipitação Vento Pressão Humidade
    00:00 +4°C° 0 mm 2 m/s 747 mmHg 88%
    01:00 +4°C° 0 mm 2 m/s 747 mmHg 90%
    02:00 +4°C° 0 mm 2 m/s 747 mmHg 90%
    03:00 +5°C° 0 mm 2 m/s 747 mmHg 90%
    04:00 +5°C° 0 mm 2 m/s 747 mmHg 90%
    05:00 +5°C° 0 mm 2 m/s 747 mmHg 90%
    06:00 +6°C° 0 mm 2 m/s 747 mmHg 90%
    07:00 +7°C° 0 mm 3 m/s 747 mmHg 90%
    08:00 +7°C° 0 mm 3 m/s 747 mmHg 89%
    09:00 +8°C° 0 mm 3 m/s 747 mmHg 88%
    10:00 +8°C° 0 mm 3 m/s 747 mmHg 87%
    11:00 +10°C° 0 mm 3 m/s 747 mmHg 79%
    12:00 +11°C° 0 mm 3 m/s 747 mmHg 71%
    13:00 +13°C° 0 mm 3 m/s 747 mmHg 64%
    14:00 +13°C° 0 mm 3 m/s 746 mmHg 62%
    15:00 +13°C° 0 mm 3 m/s 746 mmHg 61%
    16:00 +13°C° 0 mm 3 m/s 746 mmHg 59%
    17:00 +12°C° 0 mm 3 m/s 746 mmHg 66%
    18:00 +11°C° 0 mm 3 m/s 746 mmHg 73%
    19:00 +10°C° 0 mm 3 m/s 746 mmHg 80%
    20:00 +9°C° 0 mm 2 m/s 745 mmHg 80%
    21:00 +8°C° 0 mm 2 m/s 745 mmHg 80%
    22:00 +8°C° 0 mm 2 m/s 745 mmHg 79%
    23:00 +8°C° 0 mm 2 m/s 745 mmHg 80%
    Mostrar mais